Date String (YYYY-MM-DD hh:mm:ss) UTC,Instrument flags,absolute air pressure of the measurement (hPa),sample flow rate (lpm),inlet stack bypass flow (lpm),air temperature of the measurement (°C),ambient temperature measured by the external sensor (°C),aerosol sample conditioner tube jacket temperature (°C),OPC LED temperature (°C),internal box temperature (°C),relative humidity of the measurement (%),span deviation,mass concentration of particles derived from Lorenz-Mie calculation of OPC scattering (μg/m³),mass concentration of particles derived from Lorenz-Mie calculation of OPC scattering (μg/m³),mass concentration of particles derived from Lorenz-Mie calculation of OPC scattering (μg/m³)
DateTimeUTC,F1_M11,P_M11,Q1_M11,Q2_M11,T1_M11,T2_M11,T3_M11,T4_M11,T5_M11,U1_M11,ZSPAN_M11,X2_M11,X0_M11,X1_M11
2024-01-05 02:00:00,SystemResetWarning,0824.9,5.00,000.00,019.4,018.7,000.0,027.7,020.7,17.5,0001.9,0011.25,0018.00,0010.60
2024-01-05 02:01:00,SystemResetWarning,0825.0,5.00,000.00,019.4,018.7,000.0,027.7,020.7,17.5,0001.6,0011.31,0017.92,0010.63
2024-01-05 02:02:00,SystemResetWarning,0824.9,5.00,000.00,019.4,018.7,000.0,027.7,020.7,17.5,0001.3,0011.34,0018.39,0010.65
2024-01-05 02:03:00,SystemResetWarning,0825.0,5.00,000.00,019.4,018.7,000.0,027.7,020.7,17.5,0001.2,0011.35,0018.43,0010.68
2024-01-05 02:04:00,SystemResetWarning,0825.0,5.00,000.00,019.4,018.7,000.0,027.7,020.6,17.5,0001.4,0011.36,0018.25,0010.68
2024-01-05 02:05:00,SystemResetWarning,0825.0,5.00,000.00,019.4,018.7,000.0,027.7,020.6,17.6,0001.5,0011.35,0018.07,0010.70
2024-01-05 02:06:00,SystemResetWarning,0825.0,4.99,000.00,019.3,018.7,000.0,027.7,020.6,17.6,0001.5,0011.35,0017.45,0010.73
2024-01-05 02:07:00,SystemResetWarning,0825.0,5.00,000.00,019.3,018.7,000.0,027.7,020.5,17.6,0001.5,0011.37,0017.23,0010.74
2024-01-05 02:08:00,SystemResetWarning,0825.0,5.00,000.00,019.3,018.6,000.0,027.7,020.4,17.6,0001.7,0011.38,0017.22,0010.77
2024-01-05 02:09:00,SystemResetWarning,0825.0,4.99,000.00,019.3,018.6,000.0,027.7,020.4,17.6,0001.7,0011.36,0016.97,0010.75
2024-01-05 02:10:00,SystemResetWarning,0825.0,5.00,000.00,019.3,018.6,000.0,027.7,020.3,17.7,0001.8,0011.41,0017.78,0010.76
2024-01-05 02:11:00,SystemResetWarning,0824.9,5.01,000.00,019.3,018.5,000.0,027.7,020.3,17.7,0002.1,0011.43,0018.35,0010.77
2024-01-05 02:12:00,SystemResetWarning,0824.9,5.00,000.00,019.2,018.5,000.0,027.7,020.3,17.7,0002.3,0011.44,0018.37,0010.77
2024-01-05 02:13:00,SystemResetWarning,0824.9,5.01,000.00,019.2,018.5,000.0,027.6,020.3,17.8,0002.4,0011.42,0017.80,0010.77
2024-01-05 02:14:00,SystemResetWarning,0824.9,4.99,000.00,019.2,018.5,000.0,027.6,020.3,17.8,0002.3,0011.50,0017.80,0010.81
2024-01-05 02:15:00,SystemResetWarning,0825.0,5.00,000.00,019.2,018.5,000.0,027.6,020.3,17.8,0002.1,0011.54,0017.62,0010.83
2024-01-05 02:16:00,SystemResetWarning,0825.0,5.01,000.00,019.2,018.4,000.0,027.6,020.3,17.8,0002.1,0011.57,0017.96,0010.84
2024-01-05 02:17:00,SystemResetWarning,0824.9,5.00,000.00,019.2,018.4,000.0,027.6,020.3,17.8,0002.1,0011.61,0017.82,0010.87
2024-01-05 02:18:00,SystemResetWarning,0825.0,4.99,000.00,019.2,018.4,000.0,027.6,020.2,17.9,0002.0,0011.66,0017.92,0010.90
2024-01-05 02:19:00,SystemResetWarning,0825.0,4.99,000.00,019.1,018.4,000.0,027.6,020.2,17.9,0001.7,0011.68,0018.75,0010.91
2024-01-05 02:20:00,SystemResetWarning,0825.0,4.99,000.00,019.1,018.4,000.0,027.6,020.2,17.9,0001.8,0011.68,0018.76,0010.93
2024-01-05 02:21:00,SystemResetWarning,0825.0,5.00,000.00,019.1,018.3,000.0,027.6,020.2,17.9,0001.9,0011.72,0019.25,0010.97
2024-01-05 02:22:00,SystemResetWarning,0825.0,5.01,000.00,019.1,018.3,000.0,027.5,020.2,17.9,0001.9,0011.77,0018.88,0011.01
2024-01-05 02:23:00,SystemResetWarning,0825.0,5.00,000.00,019.1,018.3,000.0,027.5,020.2,17.9,0002.0,0011.76,0019.50,0011.04
2024-01-05 02:24:00,SystemResetWarning,0825.0,5.00,000.00,019.1,018.3,000.0,027.5,020.2,17.9,0002.2,0011.78,0019.82,0011.05
2024-01-05 02:25:00,SystemResetWarning,0825.0,4.99,000.00,019.1,018.3,000.0,027.5,020.1,17.9,0002.3,0011.75,0019.73,0011.05
2024-01-05 02:26:00,SystemResetWarning,0825.0,4.99,000.00,019.1,018.3,000.0,027.5,020.1,17.9,0002.2,0011.75,0019.90,0011.05
2024-01-05 02:27:00,SystemResetWarning,0825.0,5.00,000.00,019.0,018.3,000.0,027.5,020.1,18.0,0002.3,0011.75,0019.68,0011.06
2024-01-05 02:28:00,SystemResetWarning,0824.9,5.01,000.00,019.0,018.3,000.0,027.5,020.1,18.0,0002.4,0011.76,0019.79,0011.06
2024-01-05 02:29:00,SystemResetWarning,0825.0,5.00,000.00,019.0,018.3,000.0,027.5,020.1,18.0,0002.8,0011.71,0019.76,0011.04
2024-01-05 02:30:00,SystemResetWarning,0825.0,4.99,000.00,019.0,018.2,000.0,027.4,020.1,18.0,0002.8,0011.71,0018.87,0011.02
2024-01-05 02:31:00,SystemResetWarning,0825.0,4.99,000.00,019.0,018.2,000.0,027.4,020.1,18.0,0002.6,0011.80,0019.15,0011.04
2024-01-05 02:32:00,SystemResetWarning,0825.0,5.01,000.00,019.0,018.2,000.0,027.4,020.0,18.0,0002.4,0011.81,0018.50,0011.06
2024-01-05 02:33:00,SystemResetWarning,0825.0,5.00,000.00,019.0,018.2,000.0,027.4,020.0,18.0,0002.3,0011.84,0018.77,0011.04
2024-01-05 02:34:00,SystemResetWarning,0825.0,5.01,000.00,019.0,018.2,000.0,027.4,020.1,18.0,0002.1,0011.87,0018.64,0011.02
2024-01-05 02:35:00,SystemResetWarning,0825.1,5.01,000.00,019.0,018.2,000.0,027.4,020.1,18.0,0001.9,0011.84,0017.72,0011.00
2024-01-05 02:36:00,SystemResetWarning,0825.1,5.00,000.00,019.0,018.2,000.0,027.4,020.1,18.0,0001.9,0011.87,0018.57,0010.99
2024-01-05 02:37:00,SystemResetWarning,0825.1,5.00,000.00,019.0,018.2,000.0,027.4,020.1,18.0,0002.1,0011.95,0018.76,0011.01
2024-01-05 02:38:00,SystemResetWarning,0825.1,5.00,000.00,018.9,018.2,000.0,027.4,020.1,18.1,0002.1,0011.97,0018.75,0011.03
2024-01-05 02:39:00,SystemResetWarning,0825.1,5.00,000.00,018.9,018.2,000.0,027.4,020.1,18.1,0002.0,0012.00,0018.65,0011.07
2024-01-05 02:40:00,SystemResetWarning,0825.1,5.00,000.00,018.9,018.2,000.0,027.3,020.1,18.0,0001.5,0012.06,0018.68,0011.09
2024-01-05 02:41:00,SystemResetWarning,0825.1,5.00,000.00,018.9,018.2,000.0,027.3,020.1,18.1,0001.4,0012.11,0018.73,0011.15
2024-01-05 02:42:00,SystemResetWarning,0825.1,5.00,000.00,018.9,018.3,000.0,027.3,020.2,18.0,0001.5,0012.13,0019.02,0011.21
2024-01-05 02:43:00,SystemResetWarning,0825.1,5.00,000.00,018.9,018.3,000.0,027.3,020.2,18.0,0001.7,0012.15,0019.24,0011.25
2024-01-05 02:44:00,SystemResetWarning,0825.1,5.00,000.00,019.0,018.3,000.0,027.3,020.2,18.0,0001.7,0012.13,0018.53,0011.27
2024-01-05 02:45:00,SystemResetWarning,0825.1,5.00,000.00,019.0,018.3,000.0,027.3,020.2,17.9,0001.8,0012.16,0018.32,0011.32
2024-01-05 02:46:00,SystemResetWarning,0825.1,5.00,000.00,019.0,018.4,000.0,027.3,020.2,17.9,0001.8,0012.24,0018.48,0011.39
2024-01-05 02:47:00,SystemResetWarning,0825.1,5.00,000.00,019.0,018.4,000.0,027.3,020.2,17.9,0001.8,0012.29,0018.13,0011.43
2024-01-05 02:48:00,SystemResetWarning,0825.1,5.01,000.00,019.0,018.4,000.0,027.3,020.3,17.9,0002.1,0012.29,0017.91,0011.46
2024-01-05 02:49:00,SystemResetWarning,0825.1,5.01,000.00,019.0,018.4,000.0,027.3,020.2,17.9,0002.2,0012.31,0017.93,0011.48
2024-01-05 02:50:00,SystemResetWarning,0825.1,5.00,000.00,019.0,018.4,000.0,027.3,020.3,17.9,0002.3,0012.32,0018.13,0011.50
2024-01-05 02:51:00,SystemResetWarning,0825.1,4.99,000.00,019.0,018.4,000.0,027.3,020.3,17.8,0002.4,0012.34,0018.49,0011.53
2024-01-05 02:52:00,SystemResetWarning,0825.1,4.99,000.00,019.0,018.4,000.0,027.3,020.3,17.8,0002.5,0012.34,0018.47,0011.54
2024-01-05 02:53:00,SystemResetWarning,0825.1,5.00,000.00,019.0,018.4,000.0,027.3,020.3,17.8,0002.5,0012.32,0018.85,0011.54
2024-01-05 02:54:00,SystemResetWarning,0825.1,5.01,000.00,019.0,018.5,000.0,027.3,020.3,17.8,0002.5,0012.34,0018.93,0011.54
2024-01-05 02:55:00,SystemResetWarning,0825.1,5.01,000.00,019.0,018.5,000.0,027.4,020.3,17.8,0002.6,0012.38,0019.75,0011.57
2024-01-05 02:56:00,SystemResetWarning,0825.1,5.00,000.00,019.0,018.5,000.0,027.4,020.3,17.7,0002.5,0012.37,0020.44,0011.59
2024-01-05 02:57:00,SystemResetWarning,0825.1,4.99,000.00,019.0,018.5,000.0,027.4,020.3,17.7,0002.5,0012.43,0020.56,0011.62
2024-01-05 02:58:00,SystemResetWarning,0825.1,5.00,000.00,019.1,018.5,000.0,027.4,020.4,17.7,0002.5,0012.44,0020.44,0011.64
2024-01-05 02:59:00,SystemResetWarning,0825.1,4.99,000.00,019.1,018.5,000.0,027.4,020.3,17.7,0002.4,0012.43,0020.27,0011.66
